Location: LDNL
(36.4545°S, 141.6685°E)
Time: 12:09:16
(UTC+10:00)

Vanguard 3 - Pass Details

Date: 03 February 2022
Orbit: 508 x 3258 km, 33.3° (Epoch: 25 May)

Event Time Altitude Azimuth Distance (km) Brightness Sun altitude
Rises 04:01:12 0° 262° (W) 4,568 - -28.1°
Reaches altitude 10° 04:03:48 10° 266° (W) 3,884 - -27.8°
Exits shadow 04:07:46 29° 277° (W) 3,042 9.6 -27.3°
Maximum altitude 04:14:29 57° 340° (NNW) 2,675 9.3 -26.5°
Drops below altitude 10° 04:31:51 10° 52° (NE) 6,029 11.6 -24.2°
Sets 04:37:03 0° 55° (NE) 7,182 12.1 -23.4°
